Terminal Aerodrome Forecast
Issued by NWS Melbourne, FL

Home | Current Version | Previous Version | Text Only | Print | Product List | Glossary On
Versions: 1 2 3 4 5 6 7 8 9 10 11 12 13 14 15 16 17 18 19 20 21 22 23 24 25 26 27 28 29 30
000
FTUS42 KMLB 040912 AAA
TAFMCO
TAF AMD
KMCO 040912Z 0409/0506 00000KT P6SM SCT120 BKN250
     FM041400 18005KT P6SM FEW030 SCT250
     FM041900 12007KT P6SM VCTS SCT040CB BKN080
      TEMPO 0420/0423 3SM TSRA BKN020CB OVC040
     FM050000 18006KT P6SM SCT040 OVC100=

USA.gov is the U.S. government's official web portal to all federal, state and local government web resources and services.